• în România
  • Lista ţărilor
  • Pe 7 zile
  • Temperatura apei
  • Hartă satelitară
  • Meteo pe hartă
  • Widget-uri
  • user-avatar
    Intrare

    Meteo pe oră la Porto-Novo

    Astăzi, 18 Octombrie, Miercuri

    Timp Temperatura Precipitaţii Vânt Presiune Umiditate
    00:00 +27°C° 0 mm 2 m/s 759 mmHg 89%
    01:00 +27°C° 0 mm 3 m/s 759 mmHg 90%
    02:00 +27°C° 0 mm 3 m/s 758 mmHg 90%
    03:00 +27°C° 0 mm 3 m/s 758 mmHg 90%
    04:00 +27°C° 0 mm 3 m/s 758 mmHg 90%
    05:00 +27°C° 0 mm 2 m/s 758 mmHg 91%
    06:00 +27°C° 0 mm 2 m/s 758 mmHg 91%
    07:00 +29°C° 0 mm 2 m/s 758 mmHg 83%
    08:00 +31°C° 0 mm 3 m/s 759 mmHg 74%
    09:00 +33°C° 0 mm 3 m/s 759 mmHg 66%
    10:00 +34°C° 0 mm 3 m/s 759 mmHg 62%
    11:00 +35°C° 0 mm 3 m/s 758 mmHg 59%
    12:00 +36°C° 0 mm 3 m/s 758 mmHg 55%
    13:00 +36°C° 0 mm 3 m/s 757 mmHg 56%
    14:00 +35°C° 0 mm 4 m/s 757 mmHg 58%
    15:00 +35°C° 0 mm 4 m/s 756 mmHg 60%
    16:00 +33°C° 0,1 mm 4 m/s 756 mmHg 66%
    17:00 +32°C° 0,1 mm 4 m/s 757 mmHg 73%
    18:00 +29°C° 0,1 mm 4 m/s 757 mmHg 80%
    19:00 +29°C° 0,1 mm 4 m/s 757 mmHg 81%
    20:00 +29°C° 0,1 mm 4 m/s 758 mmHg 83%
    21:00 +28°C° 0,1 mm 4 m/s 759 mmHg 84%
    22:00 +28°C° 0,3 mm 4 m/s 759 mmHg 84%
    23:00 +28°C° 0,3 mm 4 m/s 759 mmHg 84%

    Mâine, 19 Octombrie, Joi

    Timp Temperatura Precipitaţii Vânt Presiune Umiditate
    00:00 +28°C° 0,3 mm 4 m/s 759 mmHg 83%
    01:00 +28°C° 0,2 mm 4 m/s 758 mmHg 84%
    02:00 +28°C° 0,2 mm 4 m/s 758 mmHg 85%
    03:00 +28°C° 0,2 mm 4 m/s 757 mmHg 86%
    04:00 +28°C° 0,3 mm 3 m/s 758 mmHg 86%
    05:00 +28°C° 0,3 mm 3 m/s 758 mmHg 86%
    06:00 +28°C° 0,3 mm 3 m/s 758 mmHg 87%
    07:00 +29°C° 0 mm 3 m/s 759 mmHg 79%
    08:00 +31°C° 0 mm 3 m/s 759 mmHg 72%
    09:00 +33°C° 0 mm 3 m/s 760 mmHg 65%
    10:00 +34°C° 0 mm 3 m/s 759 mmHg 61%
    11:00 +35°C° 0 mm 3 m/s 759 mmHg 58%
    12:00 +36°C° 0 mm 3 m/s 758 mmHg 55%
    13:00 +35°C° 0,2 mm 3 m/s 758 mmHg 56%
    14:00 +35°C° 0,2 mm 4 m/s 757 mmHg 57%
    15:00 +35°C° 0,2 mm 4 m/s 757 mmHg 58%
    16:00 +33°C° 0,1 mm 4 m/s 757 mmHg 64%
    17:00 +32°C° 0,1 mm 4 m/s 757 mmHg 69%
    18:00 +30°C° 0,1 mm 3 m/s 757 mmHg 74%
    19:00 +29°C° 0,1 mm 3 m/s 758 mmHg 77%
    20:00 +29°C° 0,1 mm 3 m/s 759 mmHg 80%
    21:00 +28°C° 0,1 mm 3 m/s 759 mmHg 82%
    22:00 +28°C° 0 mm 3 m/s 759 mmHg 83%
    23:00 +28°C° 0 mm 3 m/s 759 mmHg 84%

    Poimâine, 20 Octombrie, Vineri

    Timp Temperatura Precipitaţii Vânt Presiune Umiditate
    00:00 +28°C° 0 mm 3 m/s 758 mmHg 85%
    01:00 +28°C° 0 mm 3 m/s 758 mmHg 85%
    02:00 +28°C° 0 mm 3 m/s 757 mmHg 86%
    03:00 +28°C° 0 mm 3 m/s 757 mmHg 86%
    04:00 +28°C° 0 mm 3 m/s 757 mmHg 87%
    05:00 +28°C° 0 mm 3 m/s 758 mmHg 87%
    06:00 +28°C° 0 mm 2 m/s 758 mmHg 87%
    07:00 +29°C° 0 mm 3 m/s 758 mmHg 81%
    08:00 +30°C° 0 mm 3 m/s 759 mmHg 75%
    09:00 +31°C° 0 mm 3 m/s 759 mmHg 69%
    10:00 +33°C° 0 mm 3 m/s 759 mmHg 66%
    11:00 +34°C° 0 mm 3 m/s 758 mmHg 62%
    12:00 +35°C° 0 mm 3 m/s 758 mmHg 59%
    13:00 +34°C° 0 mm 3 m/s 757 mmHg 60%
    14:00 +34°C° 0 mm 3 m/s 757 mmHg 62%
    15:00 +33°C° 0 mm 4 m/s 756 mmHg 63%
    16:00 +31°C° 0 mm 3 m/s 757 mmHg 68%
    17:00 +30°C° 0 mm 3 m/s 757 mmHg 72%
    18:00 +29°C° 0 mm 3 m/s 757 mmHg 77%
    19:00 +29°C° 0 mm 3 m/s 758 mmHg 78%
    20:00 +29°C° 0 mm 3 m/s 759 mmHg 80%
    21:00 +28°C° 0 mm 3 m/s 759 mmHg 82%
    22:00 +28°C° 0 mm 3 m/s 759 mmHg 83%
    23:00 +28°C° 0 mm 3 m/s 759 mmHg 84%

    21 Octombrie, Sâmbătă

    Timp Temperatura Precipitaţii Vânt Presiune Umiditate
    00:00 +28°C° 0 mm 3 m/s 759 mmHg 85%
    01:00 +28°C° 0 mm 3 m/s 758 mmHg 86%
    02:00 +27°C° 0 mm 3 m/s 758 mmHg 87%
    03:00 +27°C° 0 mm 3 m/s 757 mmHg 87%
    04:00 +27°C° 0 mm 2 m/s 758 mmHg 88%
    05:00 +27°C° 0 mm 2 m/s 758 mmHg 88%
    06:00 +27°C° 0 mm 2 m/s 758 mmHg 88%
    07:00 +29°C° 0 mm 2 m/s 758 mmHg 79%
    08:00 +31°C° 0 mm 2 m/s 759 mmHg 70%
    09:00 +34°C° 0 mm 2 m/s 759 mmHg 61%
    10:00 +35°C° 0 mm 3 m/s 759 mmHg 57%
    11:00 +36°C° 0 mm 3 m/s 758 mmHg 54%
    12:00 +37°C° 0 mm 3 m/s 757 mmHg 50%
    13:00 +36°C° 0 mm 3 m/s 757 mmHg 53%
    14:00 +35°C° 0 mm 4 m/s 756 mmHg 56%
    15:00 +34°C° 0 mm 4 m/s 756 mmHg 59%
    16:00 +33°C° 0 mm 4 m/s 756 mmHg 65%
    17:00 +32°C° 0 mm 4 m/s 757 mmHg 71%
    18:00 +29°C° 0 mm 4 m/s 757 mmHg 77%
    19:00 +29°C° 0 mm 4 m/s 758 mmHg 79%
    20:00 +29°C° 0 mm 4 m/s 759 mmHg 81%
    21:00 +29°C° 0 mm 4 m/s 759 mmHg 83%
    22:00 +28°C° 0 mm 4 m/s 759 mmHg 84%
    23:00 +28°C° 0 mm 4 m/s 759 mmHg 85%

    22 Octombrie, Duminică

    Timp Temperatura Precipitaţii Vânt Presiune Umiditate
    00:00 +28°C° 0 mm 4 m/s 759 mmHg 85%
    01:00 +28°C° 0 mm 3 m/s 758 mmHg 86%
    02:00 +28°C° 0 mm 3 m/s 758 mmHg 86%
    03:00 +28°C° 0 mm 3 m/s 757 mmHg 87%
    04:00 +28°C° 0 mm 3 m/s 758 mmHg 87%
    05:00 +28°C° 0 mm 3 m/s 758 mmHg 87%
    06:00 +28°C° 0 mm 3 m/s 759 mmHg 87%
    07:00 +29°C° 0 mm 3 m/s 759 mmHg 80%
    08:00 +31°C° 0 mm 3 m/s 759 mmHg 73%
    09:00 +33°C° 0 mm 3 m/s 760 mmHg 66%
    10:00 +33°C° 0 mm 4 m/s 759 mmHg 66%
    11:00 +33°C° 0 mm 4 m/s 758 mmHg 66%
    12:00 +33°C° 0 mm 4 m/s 758 mmHg 66%
    13:00 +33°C° 0,1 mm 4 m/s 757 mmHg 68%
    14:00 +32°C° 0,1 mm 4 m/s 757 mmHg 69%
    15:00 +32°C° 0,1 mm 4 m/s 756 mmHg 70%
    16:00 +30°C° 0 mm 4 m/s 757 mmHg 73%
    17:00 +30°C° 0 mm 3 m/s 757 mmHg 75%
    18:00 +29°C° 0 mm 3 m/s 757 mmHg 78%
    19:00 +29°C° 0,1 mm 3 m/s 758 mmHg 79%
    20:00 +29°C° 0,1 mm 3 m/s 758 mmHg 80%
    21:00 +28°C° 0,1 mm 3 m/s 759 mmHg 81%
    22:00 +28°C° 0 mm 3 m/s 759 mmHg 82%
    23:00 +28°C° 0 mm 3 m/s 758 mmHg 84%

    23 Octombrie, Luni

    Timp Temperatura Precipitaţii Vânt Presiune Umiditate
    00:00 +28°C° 0 mm 3 m/s 758 mmHg 85%
    01:00 +28°C° 0,1 mm 3 m/s 758 mmHg 85%
    02:00 +28°C° 0,1 mm 3 m/s 758 mmHg 85%
    03:00 +28°C° 0,1 mm 3 m/s 757 mmHg 86%
    04:00 +28°C° 0 mm 3 m/s 758 mmHg 86%
    05:00 +28°C° 0 mm 3 m/s 758 mmHg 87%
    06:00 +28°C° 0 mm 3 m/s 758 mmHg 87%
    07:00 +29°C° 0 mm 3 m/s 758 mmHg 80%
    08:00 +32°C° 0 mm 4 m/s 759 mmHg 73%
    09:00 +33°C° 0 mm 4 m/s 759 mmHg 66%
    10:00 +33°C° 0 mm 4 m/s 758 mmHg 66%
    11:00 +33°C° 0 mm 4 m/s 757 mmHg 67%
    12:00 +33°C° 0 mm 4 m/s 757 mmHg 67%
    13:00 +33°C° 0 mm 4 m/s 756 mmHg 66%
    14:00 +33°C° 0 mm 4 m/s 756 mmHg 66%
    15:00 +33°C° 0 mm 4 m/s 756 mmHg 66%
    16:00 +32°C° 0 mm 4 m/s 756 mmHg 70%
    17:00 +30°C° 0 mm 3 m/s 757 mmHg 74%
    18:00 +29°C° 0 mm 3 m/s 757 mmHg 79%
    19:00 +29°C° 0 mm 3 m/s 758 mmHg 80%
    20:00 +28°C° 0 mm 3 m/s 758 mmHg 82%
    21:00 +28°C° 0 mm 3 m/s 759 mmHg 84%
    22:00 +28°C° 0 mm 3 m/s 758 mmHg 85%
    23:00 +28°C° 0 mm 3 m/s 758 mmHg 86%
    Arată mai mult